Middletown, OH

9:18 PM EDT on October 16, 2017 (GMT -0400)
Hook Field Municipal

Weather History for KMWO - March, 2013

Change the Weather History Date:

Saturday, March 23, 2013

  Actual Average (KFFO) Record (KFFO)
Temperature  
Mean Temperature 38 °F -  
Max Temperature 50 °F 51 °F 70 °F (2012)
Min Temperature 25 °F 31 °F 19 °F (2004)
Degree Days  
Heating Degree Days 28    
Moisture  
Dew Point 27 °F    
Average Humidity 68    
Maximum Humidity 95    
Minimum Humidity 39    
Precipitation  
Precipitation 0.00 in - - ()
Sea Level Pressure  
Sea Level Pressure 30.03 in    
Wind  
Wind Speed 2 mph (NNE)    
Max Wind Speed 12 mph    
Max Gust Speed -    
Visibility 10 miles    
Events      
Averages and records for this station are not official NWS values.
T = Trace of Precipitation, MM = Missing Value Source: NWS Daily Summary

Daily Weather History Graph

Daily Weather History Graph

Search for Another Location

Airport or City:

Trip Planner

Search our weather history database for the weather conditions in past years. The results will help you decide how hot, cold, wet, or windy it might be!

Date:

Astronomy

Mar. 23, 2013 Rise Set
Actual Time 7:35 AM EDT 7:52 PM EDT
Civil Twilight 7:08 AM EDT 8:19 PM EDT
Nautical Twilight 6:37 AM EDT 8:51 PM EDT
Astronomical Twilight 6:05 AM EDT 9:23 PM EDT
Moon 4:19 PM EDT (3/23) 5:10 AM EDT (3/23)
Length of Visible Light 13h 10m
Length of Day
12h 17m
Waxing Gibbous, 85% of the Moon is Illuminated
Mar 23
Waxing Gibbous
Mar 27
Full
Apr 3
Last Quarter
Apr 10
New
Apr 18
First Quarter

Hourly Weather History & Observations

Time (EDT) Temp. Windchill Dew Point Humidity Pressure Visibility Wind Dir Wind Speed Gust Speed Precip Events Conditions
12:35 AM 27.9 °F - 24.4 °F 87% 30.05 in 10.0 mi Calm Calm - N/A   Clear
12:55 AM 27.9 °F 24.0 °F 25.2 °F 90% 30.05 in 10.0 mi NNE 3.5 mph - N/A   Clear
1:15 AM 27.9 °F 24.0 °F 25.5 °F 91% 30.05 in 10.0 mi North 3.5 mph - N/A   Clear
1:35 AM 27.9 °F - 24.8 °F 88% 30.05 in 10.0 mi Calm Calm - N/A   Clear
1:55 AM 27.9 °F - 25.5 °F 91% 30.05 in 10.0 mi Calm Calm - N/A   Clear
2:15 AM 27.9 °F - 25.3 °F 90% 30.05 in 10.0 mi Calm Calm - N/A   Clear
2:35 AM 27.9 °F - 25.7 °F 92% 30.05 in 10.0 mi Calm Calm - N/A   Clear
2:55 AM 25.3 °F - 23.4 °F 92% 30.05 in 10.0 mi Calm Calm - N/A   Scattered Clouds
3:15 AM 25.7 °F - 24.4 °F 95% 30.05 in 10.0 mi Calm Calm - N/A   Scattered Clouds
3:35 AM 27.9 °F - 26.6 °F 95% 30.05 in 10.0 mi Calm Calm - N/A   Mostly Cloudy
3:55 AM 27.9 °F - 26.6 °F 95% 30.04 in 10.0 mi Calm Calm - N/A   Overcast
4:15 AM 27.9 °F - 26.1 °F 93% 30.04 in 10.0 mi Calm Calm - N/A   Overcast
4:35 AM 27.9 °F - 26.1 °F 93% 30.03 in 10.0 mi Calm Calm - N/A   Overcast
4:55 AM 27.9 °F - 25.5 °F 91% 30.03 in 10.0 mi Calm Calm - N/A   Overcast
5:15 AM 28.8 °F - 26.2 °F 90% 30.03 in 10.0 mi Calm Calm - N/A   Overcast
5:35 AM 29.1 °F 24.1 °F 26.6 °F 90% 30.03 in 10.0 mi NNE 4.6 mph - N/A   Overcast
5:55 AM 30.2 °F - 28.0 °F 92% 30.03 in 10.0 mi Calm Calm - N/A   Overcast
6:15 AM 30.2 °F 26.7 °F 27.7 °F 90% 30.03 in 10.0 mi ENE 3.5 mph - N/A   Overcast
6:35 AM 30.2 °F - 28.0 °F 92% 30.04 in 10.0 mi Calm Calm - N/A   Overcast
6:55 AM 31.8 °F - 28.4 °F 87% 30.05 in 10.0 mi Calm Calm - N/A   Overcast
7:15 AM 30.7 °F - 27.7 °F 88% 30.05 in 10.0 mi Calm Calm - N/A   Overcast
7:35 AM 30.7 °F - 28.6 °F 92% 30.05 in 10.0 mi Calm Calm - N/A   Overcast
7:55 AM 32.5 °F - 29.3 °F 88% 30.06 in 10.0 mi Calm Calm - N/A   Overcast
8:15 AM 32.5 °F - 30.6 °F 92% 30.07 in 10.0 mi Calm Calm - N/A   Overcast
8:35 AM 32.5 °F - 30.6 °F 92% 30.08 in 10.0 mi Calm Calm - N/A   Overcast
8:55 AM 32.5 °F - 30.0 °F 90% 30.08 in 10.0 mi Calm Calm - N/A   Overcast
9:15 AM 32.5 °F - 30.2 °F 91% 30.08 in 10.0 mi Calm Calm - N/A   Overcast
9:35 AM 32.5 °F - 28.9 °F 87% 30.08 in 10.0 mi Calm Calm - N/A   Overcast
9:55 AM 32.5 °F - 28.2 °F 84% 30.09 in 10.0 mi Calm Calm - N/A   Overcast
10:15 AM 34.9 °F - 28.8 °F 78% 30.08 in 10.0 mi Calm Calm - N/A   Overcast
10:35 AM 35.1 °F - 27.5 °F 74% 30.08 in 10.0 mi Calm Calm - N/A   Overcast
10:55 AM 37.6 °F - 27.9 °F 68% 30.08 in 10.0 mi Calm Calm - N/A   Mostly Cloudy
11:15 AM 38.3 °F - 27.3 °F 65% 30.08 in 10.0 mi Calm Calm - N/A   Overcast
11:35 AM 39.2 °F - 24.8 °F 56% 30.08 in 10.0 mi Calm Calm - N/A   Overcast
11:55 AM 40.5 °F - 24.6 °F 53% 30.08 in 10.0 mi Calm Calm - N/A   Mostly Cloudy
12:15 PM 41.4 °F - 24.4 °F 51% 30.07 in 10.0 mi Calm Calm - N/A   Mostly Cloudy
12:35 PM 43.7 °F - 24.3 °F 46% 30.07 in 10.0 mi Calm Calm - N/A   Scattered Clouds
12:55 PM 46.0 °F - 26.1 °F 46% 30.06 in 10.0 mi Calm Calm - N/A   Mostly Cloudy
1:15 PM 47.7 °F - 26.2 °F 43% 30.06 in 10.0 mi SW 3.5 mph - N/A   Scattered Clouds
1:35 PM 47.7 °F - 25.7 °F 42% 30.06 in 10.0 mi SE 4.6 mph - N/A   Scattered Clouds
1:55 PM 47.7 °F - 25.7 °F 42% 30.05 in 10.0 mi East 3.5 mph - N/A   Clear
2:15 PM 47.8 °F - 26.4 °F 43% 30.04 in 10.0 mi ESE 8.1 mph - N/A   Clear
2:35 PM 47.7 °F - 25.3 °F 42% 30.04 in 10.0 mi NW 3.5 mph - N/A   Clear
2:55 PM 48.2 °F - 25.9 °F 42% 30.03 in 10.0 mi NW 6.9 mph - N/A   Clear
3:15 PM 49.5 °F - 26.4 °F 41% 30.03 in 10.0 mi NNE 6.9 mph - N/A   Clear
3:35 PM 48.2 °F - 24.6 °F 40% 30.03 in 10.0 mi NNW 9.2 mph - N/A   Clear
3:55 PM 50.2 °F - 27.9 °F 42% 30.03 in 10.0 mi North 11.5 mph - N/A   Clear
4:15 PM 50.2 °F - 27.5 °F 42% 30.01 in 10.0 mi North 6.9 mph - N/A   Clear
4:35 PM 50.2 °F - 26.8 °F 40% 30.01 in 10.0 mi North 9.2 mph - N/A   Clear
4:55 PM 47.7 °F - 23.7 °F 39% 30.00 in 10.0 mi North 3.5 mph - N/A   Clear
5:15 PM 49.1 °F - 25.3 °F 40% 30.00 in 10.0 mi NNE 8.1 mph - N/A   Clear
5:35 PM 47.7 °F - 24.6 °F 41% 29.99 in 10.0 mi North 5.8 mph - N/A   Clear
5:55 PM 47.8 °F - 24.1 °F 39% 29.99 in 10.0 mi NNE 5.8 mph - N/A   Clear
6:15 PM 47.7 °F - 24.3 °F 40% 29.98 in 10.0 mi NNE 8.1 mph - N/A   Clear
6:35 PM 47.7 °F - 25.7 °F 42% 29.98 in 10.0 mi NNE 4.6 mph - N/A   Clear
6:55 PM 47.7 °F - 26.2 °F 43% 29.99 in 10.0 mi NNE 8.1 mph - N/A   Clear
7:15 PM 47.7 °F - 28.2 °F 47% 29.99 in 10.0 mi NE 5.8 mph - N/A   Clear
7:35 PM 46.6 °F - 28.2 °F 49% 29.99 in 10.0 mi NNE 3.5 mph - N/A   Clear
7:55 PM 45.1 °F 43.7 °F 27.3 °F 50% 29.99 in 10.0 mi North 3.5 mph - N/A   Clear
8:15 PM 41.5 °F 37.8 °F 26.4 °F 55% 29.99 in 10.0 mi NNE 5.8 mph - N/A   Clear
8:35 PM 40.6 °F 37.5 °F 26.6 °F 57% 29.99 in 10.0 mi NNE 4.6 mph - N/A   Clear
8:55 PM 40.1 °F 35.3 °F 26.4 °F 58% 29.99 in 10.0 mi NNE 6.9 mph - N/A   Clear
9:15 PM 40.1 °F 35.3 °F 26.4 °F 58% 29.98 in 10.0 mi NNE 6.9 mph - N/A   Clear
9:35 PM 38.8 °F 33.8 °F 26.2 °F 61% 29.97 in 10.0 mi NE 6.9 mph - N/A   Clear
9:55 PM 38.8 °F 33.8 °F 26.4 °F 61% 29.97 in 10.0 mi NE 6.9 mph - N/A   Clear
10:15 PM 37.6 °F 34.0 °F 25.7 °F 62% 29.96 in 10.0 mi NE 4.6 mph - N/A   Clear
10:35 PM 37.8 °F 34.2 °F 25.5 °F 61% 29.95 in 10.0 mi NE 4.6 mph - N/A   Clear
10:55 PM 37.6 °F 34.0 °F 26.1 °F 63% 29.95 in 10.0 mi NE 4.6 mph - N/A   Clear
11:15 PM 35.1 °F 30.1 °F 25.9 °F 69% 29.94 in 10.0 mi NE 5.8 mph - N/A   Clear
11:35 PM 37.6 °F 31.0 °F 27.5 °F 67% 29.94 in 10.0 mi NE 9.2 mph - N/A   Clear
11:55 PM 37.6 °F 31.0 °F 27.5 °F 67% 29.92 in 10.0 mi NE 9.2 mph - N/A   Clear